This demonstration page uses our WeatherBlox Daily Observations layout. Learn more.

Left ArrowRight Arrow

39.92423, -83.80882

Hourly Observations for January 9, 2019

Temp ( °F °C ) Dew Point ( °F °C ) Humidity (%) Winds ( mph kmh ) Pressure ( in mb ) Visibility ( mi km ) Precip ( " mm )
12:56 am 00:56 Cloudy 39 3.9 26 -3.3 60 60 W 21 33 29.94 1014 10 16 N/A
1:56 am 01:56 Cloudy 38 3.3 25 -3.9 60 60 W 22 35 29.94 1014 10 16 N/A
2:56 am 02:56 Cloudy 35 1.7 24 -4.4 64 64 WNW 26 43 29.96 1015 10 16 N/A
3:56 am 03:56 Mostly Cloudy 31 -0.6 24 -4.4 76 76 W 20 31 29.99 1016 10 16 N/A
4:12 am 04:12 Cloudy 30 -1 25 -4 80 80 W 23 37 30.03 1017 10 16 N/A
4:56 am 04:56 Cloudy 30 -1.1 22 -5.6 72 72 W 20 31 29.99 1016 10 16 N/A
5:09 am 05:09 Cloudy 30 -1 21 -6 69 69 WNW 17 28 30.03 1017 10 16 N/A
5:31 am 05:31 Windy with Snow Likely 28 -2 21 -6 74 74 WNW 20 31 30.06 1018 10 16 N/A
5:56 am 05:56 Cloudy 28 -2.2 21 -6.1 75 75 WNW 24 39 30.02 1017 10 16 N/A
6:56 am 06:56 Windy with Snow Likely 27 -2.8 20 -6.7 75 75 W 22 35 30.05 1018 9 14 N/A
7:56 am 07:56 Cloudy with Light Snow 26 -3.3 19 -7.2 75 75 WNW 16 26 30.08 1019 9 14 N/A
8:56 am 08:56 Cloudy with Light Snow 25 -3.9 19 -7.2 78 78 W 18 30 30.11 1020 9 14 N/A
9:56 am 09:56 Windy with Snow Likely 25 -3.9 19 -7.2 78 78 WNW 20 31 30.14 1021 9 14 N/A
10:56 am 10:56 Cloudy with Light Snow 26 -3.3 19 -7.2 75 75 WNW 16 26 30.15 1021 9 14 N/A
11:56 am 11:56 Cloudy 26 -3.3 18 -7.8 71 71 WNW 22 35 30.14 1021 9 14 N/A
12:04 pm 12:04 Cloudy 27 -3 18 -8 69 69 W 18 30 30.15 1021 10 16 N/A
12:36 pm 12:36 Cloudy with Light Snow 27 -3 18 -8 69 69 WNW 16 26 30.15 1021 9 14 N/A
12:56 pm 12:56 Windy with Snow Likely 25 -3.9 17 -8.3 72 72 WNW 21 33 30.12 1020 9 14 N/A
1:26 pm 13:26 Cloudy with Light Snow 25 -4 18 -8 74 74 WNW 17 28 30.18 1022 9 14 N/A
1:56 pm 13:56 Windy with Snow Likely 25 -3.9 16 -8.9 69 69 WNW 21 33 30.14 1021 9 14 N/A
2:56 pm 14:56 Windy with Snow Likely 25 -3.9 16 -8.9 69 69 WNW 21 33 30.16 1021 9 14 N/A
3:08 pm 15:08 Windy with Snow Likely 25 -4 16 -9 69 69 WNW 20 31 30.21 1023 9 14 N/A
3:56 pm 15:56 Cloudy with Light Snow 24 -4.4 16 -8.9 71 71 WNW 17 28 30.17 1022 9 14 N/A
4:56 pm 16:56 Cloudy with Light Snow 23 -5 17 -8.3 78 78 WNW 13 20 30.20 1023 9 14 N/A
5:56 pm 17:56 Cloudy with Light Snow 23 -5 17 -8.3 78 78 WNW 17 28 30.21 1023 9 14 N/A
6:56 pm 18:56 Cloudy with Light Snow 23 -5 16 -8.9 74 74 WNW 18 30 30.22 1023 9 14 N/A
7:37 pm 19:37 Cloudy with Light Snow 21 -6 18 -8 86 86 WNW 14 22 30.27 1025 9 14 N/A
7:45 pm 19:45 Windy with Snow Likely 21 -6 16 -9 80 80 WNW 20 31 30.27 1025 9 14 N/A
7:56 pm 19:56 Cloudy with Light Snow 22 -5.6 17 -8.3 82 82 WNW 14 22 30.23 1024 9 14 N/A
8:30 pm 20:30 Cloudy with Light Snow 21 -6 16 -9 80 80 WNW 15 24 30.27 1025 8 13 N/A
8:56 pm 20:56 Cloudy with Light Snow 22 -5.6 17 -8.3 82 82 WNW 14 22 30.25 1024 9 14 N/A
9:40 pm 21:40 Cloudy with Light Snow 21 -6 16 -9 80 80 NW 18 30 30.30 1026 8 13 N/A
9:56 pm 21:56 Cloudy with Light Snow 21 -6.1 17 -8.3 85 85 WNW 14 22 30.27 1025 9 14 N/A
10:56 pm 22:56 Cloudy with Light Snow 21 -6.1 15 -9.4 78 78 WNW 17 28 30.27 1025 9 14 N/A
11:56 pm 23:56 Cloudy with Light Snow 21 -6.1 16 -8.9 81 81 WNW 12 19 30.28 1025 9 14 N/A

Powered by AerisWeather